Domov               UVHVVR             MKGP            O straneh              
ZDRAVSTVENO VARSTVO RASTLIN
  MREŽA AGROMET. POSTAJ
 ► PROGNOSTIČNA OBVESTILA
AGROMETEOROLOŠKI PODATKI -
ARSO
OBVLADOVANJE TVEGANJ ZARADI
NEUGODNIH VREMENSKIH RAZMER
  ► NARAVNE NESREČE
  ► SUŠA/MOČA
  ► NAMAKANJE
  ► ŽLED (gozdarstvo)
KARTOGRAFSKI PRIKAZI
SPLETNE POVEZAVE
PROJEKTI IN PUBLIKACIJE

AGROMETEOROLOŠKA MREŽA: VREMENSKE POSTAJE IN FENOLOŠKA OPAZOVANJA

Pregled podatkov za lokacijo BOROVNICA, meteorološka postaja 27469

Pregled senzorjev na lokaciji

ID Ime Zadnja
vrednost
Datum
zadnje
spremembe
Tip
senzorja
1683 Temperatura 2 m ( °C) 24,05 °C 21.8.2017 15:30 Generic -40 - +60 °C
1684 Relativna vlaga 2 m (% RH) 32,6 % RH 21.8.2017 15:30 Generic 0 - 100 %
2195 Padavine 0.2 mm (mm) 0 mm 21.8.2017 15:30 Generic 0.2 mm
2199 Omočenost lista (U) 0 U 21.8.2017 15:30 A730WET

Pregled podatkov zadnjih 24 ur

Zap.
št.
Datum in čas BOROVNICA
Omočenost
lista
Padavine
0.2
mm
Relativna
vlaga
2
m
Temperatura
2
m
0 21.8.2017 14:30 0 0 32,6 24,05
1 21.8.2017 14:00 0 0 35,31 23,76
2 21.8.2017 13:30 0 0 32,87 23,83
3 21.8.2017 13:00 0 0 35,75 23,66
4 21.8.2017 12:30 0 0 35,21 23,3
5 21.8.2017 12:00 0 0 36,12 22,83
6 21.8.2017 11:30 0 0 38,51 22,2
7 21.8.2017 11:00 0 0 49,65 21,42
8 21.8.2017 10:30 0 0 49,52 20,1
9 21.8.2017 10:00 0 0 59,02 18,97
10 21.8.2017 09:30 0 0 60,81 17,85
11 21.8.2017 09:00 0 0 66,64 16,61
12 21.8.2017 08:30 0 0 69,06 15,21
13 21.8.2017 08:00 0 0 78,8 13,99
14 21.8.2017 07:30 0 0 99,93 11,89
15 21.8.2017 07:00 0 0 99,93 9,43
16 21.8.2017 06:30 0 0 99,93 7,33
17 21.8.2017 06:00 0 0 99,93 5,57
18 21.8.2017 05:30 0 0 99,93 4,86
19 21.8.2017 05:00 0 0 99,93 5,01
20 21.8.2017 04:30 0 0 99,93 5,08
21 21.8.2017 04:00 0 0 99,93 5,45
22 21.8.2017 03:30 0 0 99,93 6,01
23 21.8.2017 03:00 0 0 99,93 5,79
24 21.8.2017 02:30 0 0 99,93 6,45
25 21.8.2017 02:00 0 0 99,93 6,76
26 21.8.2017 01:30 0 0 99,93 7,25
27 21.8.2017 01:00 0 0 99,93 7,4
28 21.8.2017 00:30 0 0 99,93 8,03
29 21.8.2017 00:00 0 0 99,93 8,35
30 20.8.2017 23:30 0 0 99,93 8,96
31 20.8.2017 23:00 0 0 99,93 9,5
32 20.8.2017 22:30 0 0 99,93 10,6
33 20.8.2017 22:00 0 0 99,63 12,09
34 20.8.2017 21:30 0 0 87,4 12,41
35 20.8.2017 21:00 0 0 85,08 13,5
36 20.8.2017 20:30 0 0 74,99 14,48
37 20.8.2017 20:00 0 0 76,8 15,73
38 20.8.2017 19:30 0 0 65,08 17,12
39 20.8.2017 19:00 0 0 54,29 18,95
40 20.8.2017 18:30 0 0 50,67 19,51
41 20.8.2017 18:00 0 0 51,6 20,24
42 20.8.2017 17:30 0 0 55,73 21,22
43 20.8.2017 17:00 0 0 58,22 21,22
44 20.8.2017 16:30 0 0 50,57 22,88
45 20.8.2017 16:00 0 0 43 23,52
© 2011 Ministrstvo za kmetijstvo, gozdarstvo in prehrano. Vse pravice pridržane.